Date String (YYYY-MM-DD hh:mm:ss) UTC,Instrument flags,Ambient pressure (hPa),Sample flow (lpm),Bypass flow (lpm),Sample temperature (°C),Ambient temperature (°C),ASC tube jacket temperature (°C),LED temperature (°C),Box temperature (°C),Sample RH (%),Span deviation,Mass concentration (μg/m³),Mass concentration (μg/m³),Mass concentration (μg/m³)
DateTimeUTC,F1_M11,P_M11,Q1_M11,Q2_M11,T1_M11,T2_M11,T3_M11,T4_M11,T5_M11,U1_M11,ZSPAN_M11,X0_M11,X2_M11,X1_M11
2021-12-06 12:00:00,,0829.6,5.01,0.00,21.6,21.0,00.0,30.6,23.3,06.6,0000.0,0004.99,0002.04,0001.44
2021-12-06 12:01:00,,0829.5,5.01,0.00,21.6,20.9,00.0,30.6,23.2,06.6,0000.0,0005.13,0002.07,0001.45
2021-12-06 12:02:00,,0829.6,4.99,0.00,21.6,20.9,00.0,30.6,23.2,06.6,0000.0,0005.28,0002.11,0001.45
2021-12-06 12:03:00,,0829.8,5.01,0.00,21.6,20.9,00.0,30.6,23.2,06.6,0000.0,0005.21,0002.12,0001.46
2021-12-06 12:04:00,,0829.6,5.00,0.00,21.6,21.4,00.0,30.6,23.3,06.7,0000.0,0005.10,0002.11,0001.47
2021-12-06 12:05:00,,0829.8,4.99,0.00,21.8,22.2,00.0,30.6,23.6,06.6,0000.0,0004.60,0002.15,0001.48
2021-12-06 12:06:00,,0829.6,5.00,0.00,21.9,22.8,00.0,30.7,23.9,06.5,0000.0,0005.25,0002.11,0001.46
2021-12-06 12:07:00,,0829.6,5.01,0.00,22.0,22.7,00.0,30.7,23.9,06.5,0000.0,0005.35,0002.10,0001.45
2021-12-06 12:08:00,,0829.5,5.01,0.00,22.0,22.5,00.0,30.8,23.9,06.5,0000.0,0005.55,0002.11,0001.45
2021-12-06 12:09:00,,0829.6,5.00,0.00,22.0,22.2,00.0,30.8,23.9,06.4,0000.0,0005.35,0002.07,0001.43
2021-12-06 12:10:00,,0829.6,5.00,0.00,22.0,22.0,00.0,30.8,23.8,06.4,0000.0,0005.51,0002.07,0001.43
2021-12-06 12:11:00,,0829.5,4.99,0.00,22.0,21.9,00.0,30.8,23.8,06.4,0000.0,0005.83,0002.07,0001.43
2021-12-06 12:12:00,,0829.5,5.00,0.00,22.0,21.7,00.0,30.8,23.7,06.5,0000.0,0005.80,0002.06,0001.42
2021-12-06 12:13:00,,0829.5,5.00,0.00,22.0,21.6,00.0,30.8,23.6,06.4,0000.0,0005.83,0002.06,0001.42
2021-12-06 12:14:00,,0829.6,5.01,0.00,21.9,21.5,00.0,30.8,23.6,06.5,0000.0,0005.81,0002.07,0001.43
2021-12-06 12:15:00,,0829.5,5.01,0.00,21.9,21.4,00.0,30.8,23.6,06.5,0000.0,0005.59,0002.05,0001.43
2021-12-06 12:16:00,,0829.5,5.00,0.00,21.9,21.3,00.0,30.8,23.5,06.5,0000.0,0005.14,0001.98,0001.42
2021-12-06 12:17:00,,0829.4,4.99,0.00,21.9,21.3,00.0,30.8,23.5,06.5,0000.0,0004.25,0001.99,0001.42
2021-12-06 12:18:00,,0829.4,5.02,0.00,21.9,21.2,00.0,30.8,23.4,06.4,0000.0,0004.19,0002.01,0001.42
2021-12-06 12:19:00,,0829.4,5.00,0.00,21.8,21.1,00.0,30.8,23.4,06.4,0000.0,0004.16,0002.04,0001.42
2021-12-06 12:20:00,,0829.2,5.01,0.00,21.8,21.0,00.0,30.8,23.4,06.4,0000.0,0004.29,0002.07,0001.42
2021-12-06 12:21:00,,0829.2,4.98,0.00,21.8,21.1,00.0,30.8,23.4,06.4,0000.0,0004.20,0002.07,0001.43
2021-12-06 12:22:00,,0829.3,5.00,0.00,21.8,21.7,00.0,30.8,23.5,06.5,0000.0,0003.84,0002.09,0001.44
2021-12-06 12:23:00,,0829.3,5.00,0.00,21.9,22.6,00.0,30.8,23.8,06.4,0000.0,0004.06,0002.11,0001.44
2021-12-06 12:24:00,,0829.3,4.99,0.00,22.1,22.9,00.0,30.9,24.0,06.3,0000.0,0003.89,0002.06,0001.44
2021-12-06 12:25:00,,0829.3,5.01,0.00,22.1,22.6,00.0,30.9,24.0,06.3,0000.0,0003.93,0002.04,0001.42
2021-12-06 12:26:00,,0829.3,5.01,0.00,22.1,22.4,00.0,30.9,23.9,06.3,0000.0,0004.02,0002.03,0001.41
2021-12-06 12:27:00,,0829.3,5.00,0.00,22.1,22.1,00.0,30.9,23.9,06.4,0000.0,0005.01,0002.05,0001.41
2021-12-06 12:28:00,,0829.4,4.99,0.00,22.1,21.9,00.0,30.9,23.8,06.3,0000.0,0006.94,0002.03,0001.40
2021-12-06 12:29:00,,0829.5,5.00,0.00,22.0,21.8,00.0,30.9,23.7,06.3,0000.0,0006.82,0001.97,0001.41
2021-12-06 12:30:00,,0829.4,5.00,0.00,22.0,21.6,00.0,31.0,23.7,06.3,0000.0,0006.60,0001.90,0001.40
2021-12-06 12:31:00,,0829.5,5.00,0.00,22.0,21.5,00.0,30.9,23.7,06.3,0000.0,0006.53,0001.92,0001.40
2021-12-06 12:32:00,,0829.3,5.01,0.00,22.0,21.4,00.0,30.9,23.6,06.3,0000.0,0006.33,0001.90,0001.41
2021-12-06 12:33:00,,0829.3,4.99,0.00,22.0,21.4,00.0,30.9,23.6,06.3,0000.0,0006.31,0001.88,0001.40
2021-12-06 12:34:00,,0829.3,5.02,0.00,21.9,21.3,00.0,30.9,23.5,06.3,0000.0,0006.12,0001.89,0001.41
2021-12-06 12:35:00,,0829.2,4.99,0.00,21.9,21.2,00.0,30.9,23.5,06.3,0000.0,0006.13,0001.91,0001.41
2021-12-06 12:36:00,,0829.1,5.00,0.00,21.9,21.2,00.0,30.9,23.5,06.3,0000.0,0006.23,0001.92,0001.43
2021-12-06 12:37:00,,0829.2,4.99,0.00,21.9,21.1,00.0,30.9,23.4,06.3,0000.0,0006.12,0001.89,0001.44
2021-12-06 12:38:00,,0829.3,4.99,0.00,21.8,21.2,00.0,30.9,23.4,06.3,0000.0,0005.50,0001.93,0001.44
2021-12-06 12:39:00,,0829.2,5.01,0.00,21.9,21.7,00.0,30.9,23.6,06.3,0000.0,0004.52,0001.97,0001.44
2021-12-06 12:40:00,,0829.1,5.00,0.00,22.0,22.5,00.0,30.9,23.9,06.2,0000.0,0004.49,0001.97,0001.43
2021-12-06 12:41:00,,0829.1,4.99,0.00,22.1,22.9,00.0,31.0,24.1,06.2,0000.0,0004.43,0001.96,0001.42
2021-12-06 12:42:00,,0829.2,5.02,0.00,22.2,22.7,00.0,31.0,24.1,06.2,0000.0,0004.41,0001.93,0001.42
2021-12-06 12:43:00,,0829.1,4.99,0.00,22.2,22.4,00.0,31.0,24.0,06.2,0000.0,0005.37,0002.01,0001.43
2021-12-06 12:44:00,,0828.9,5.00,0.00,22.2,22.2,00.0,31.0,23.9,06.2,0000.0,0006.69,0002.00,0001.43
2021-12-06 12:45:00,,0828.9,5.00,0.00,22.1,22.0,00.0,31.0,23.8,06.2,0000.0,0006.72,0001.98,0001.42
2021-12-06 12:46:00,,0828.9,5.00,0.00,22.1,21.8,00.0,31.0,23.7,06.2,0000.0,0007.29,0001.98,0001.43
2021-12-06 12:47:00,,0829.0,5.00,0.00,22.1,21.6,00.0,31.0,23.7,06.2,0000.0,0008.09,0001.95,0001.41
2021-12-06 12:48:00,,0829.1,5.00,0.00,22.0,21.5,00.0,31.0,23.7,06.3,0000.0,0008.40,0001.95,0001.41
2021-12-06 12:49:00,,0829.2,5.00,0.00,22.0,21.4,00.0,31.0,23.6,06.3,0000.0,0008.45,0001.95,0001.41
2021-12-06 12:50:00,,0829.2,5.01,0.00,22.0,21.3,00.0,31.0,23.5,06.3,0000.0,0008.16,0001.95,0001.44
2021-12-06 12:51:00,,0829.2,4.99,0.00,21.9,21.2,00.0,31.0,23.5,06.3,0000.0,0008.15,0001.96,0001.45
2021-12-06 12:52:00,,0829.1,5.01,0.00,21.9,21.1,00.0,31.0,23.5,06.3,0000.0,0008.20,0002.00,0001.46
2021-12-06 12:53:00,,0828.9,4.99,0.00,21.9,21.1,00.0,31.0,23.5,06.3,0000.0,0008.17,0001.99,0001.45
2021-12-06 12:54:00,,0829.0,5.01,0.00,21.9,21.5,00.0,31.0,23.5,06.3,0000.0,0007.50,0001.91,0001.44
2021-12-06 12:55:00,,0828.9,4.99,0.00,22.0,22.3,00.0,31.0,23.8,06.3,0000.0,0006.51,0001.89,0001.45
2021-12-06 12:56:00,,0829.0,5.01,0.00,22.2,22.9,00.0,31.0,24.1,06.2,0000.0,0006.44,0001.91,0001.45
2021-12-06 12:57:00,,0828.9,4.99,0.00,22.3,22.9,00.0,31.1,24.2,06.2,0000.0,0005.74,0001.91,0001.45
2021-12-06 12:58:00,,0828.9,5.00,0.00,22.3,22.6,00.0,31.1,24.1,06.2,0000.0,0004.45,0001.94,0001.46
2021-12-06 12:59:00,,0829.0,5.00,0.00,22.3,22.4,00.0,31.1,24.1,06.2,0000.0,0004.18,0001.98,0001.46
